Time,TemperatureF,DewpointF,PressureIn,WindDirection,WindDirectionDegrees,WindSpeedMPH,WindSpeedGustMPH,Humidity,HourlyPrecipIn,Conditions,Clouds,dailyrainin,SoftwareType,DateUTC
2013-05-01 00:05:00,72.2,66.0,29.97,North,-999,0.0,0.0,81,0.00,,,-99.99,WeatherLink 5.5,2013-05-01 04:05:00,
2013-05-01 00:10:00,72.2,66.0,29.97,North,-999,0.0,0.0,81,0.00,,,-99.99,WeatherLink 5.5,2013-05-01 04:10:00,
2013-05-01 00:15:00,72.2,66.0,29.97,North,-999,0.0,0.0,81,0.00,,,-99.99,WeatherLink 5.5,2013-05-01 04:15:00,
2013-05-01 00:25:00,72.3,66.1,29.95,ESE,112,0.0,2.0,81,0.00,,,-99.99,WeatherLink 5.5,2013-05-01 04:25:00,
2013-05-01 00:30:00,72.2,66.0,29.97,North,-999,0.0,0.0,81,0.00,,,-99.99,WeatherLink 5.5,2013-05-01 04:30:00,
2013-05-01 00:35:00,72.2,66.0,29.96,North,-999,0.0,0.0,81,0.00,,,-99.99,WeatherLink 5.5,2013-05-01 04:35:00,
2013-05-01 00:40:00,72.2,66.0,29.96,North,-999,0.0,0.0,81,0.00,,,-99.99,WeatherLink 5.5,2013-05-01 04:40:00,
2013-05-01 00:45:00,72.1,65.9,29.96,North,-999,0.0,0.0,81,0.00,,,-99.99,WeatherLink 5.5,2013-05-01 04:45:00,
2013-05-01 00:50:00,71.6,65.5,29.96,North,-999,0.0,0.0,81,0.00,,,-99.99,WeatherLink 5.5,2013-05-01 04:50:00,
2013-05-01 00:55:00,71.6,65.5,29.96,North,-999,0.0,0.0,81,0.00,,,-99.99,WeatherLink 5.5,2013-05-01 04:55:00,
2013-05-01 01:00:00,71.1,65.0,29.95,North,-999,0.0,0.0,81,0.00,,,-99.99,WeatherLink 5.5,2013-05-01 05:00:00,
2013-05-01 01:10:00,70.9,64.8,29.95,North,-999,0.0,0.0,81,0.00,,,-99.99,WeatherLink 5.5,2013-05-01 05:10:00,
2013-05-01 01:15:00,70.8,64.7,29.95,North,-999,0.0,0.0,81,0.00,,,-99.99,WeatherLink 5.5,2013-05-01 05:15:00,
2013-05-01 01:20:00,70.8,64.7,29.95,North,-999,0.0,0.0,81,0.00,,,-99.99,WeatherLink 5.5,2013-05-01 05:20:00,
2013-05-01 01:25:00,70.7,64.6,29.95,North,-999,0.0,0.0,81,0.00,,,-99.99,WeatherLink 5.5,2013-05-01 05:25:00,
2013-05-01 01:30:00,70.6,64.5,29.94,North,-999,0.0,0.0,81,0.00,,,-99.99,WeatherLink 5.5,2013-05-01 05:30:00,
2013-05-01 01:35:00,70.6,64.5,29.94,North,-999,0.0,0.0,81,0.00,,,-99.99,WeatherLink 5.5,2013-05-01 05:35:00,
2013-05-01 01:40:00,70.4,64.3,29.94,North,-999,0.0,0.0,81,0.00,,,-99.99,WeatherLink 5.5,2013-05-01 05:40:00,
2013-05-01 01:45:00,70.5,64.4,29.94,North,-999,0.0,0.0,81,0.00,,,-99.99,WeatherLink 5.5,2013-05-01 05:45:00,
2013-05-01 01:50:00,70.5,64.4,29.94,North,-999,0.0,0.0,81,0.00,,,-99.99,WeatherLink 5.5,2013-05-01 05:50:00,
2013-05-01 01:55:00,70.6,64.5,29.94,North,-999,0.0,0.0,81,0.00,,,-99.99,WeatherLink 5.5,2013-05-01 05:55:00,
2013-05-01 02:01:00,70.6,64.5,29.94,North,-999,0.0,0.0,81,0.00,,,-99.99,WeatherLink 5.5,2013-05-01 06:01:00,
2013-05-01 02:06:00,70.4,64.3,29.93,North,-999,0.0,0.0,81,0.00,,,-99.99,WeatherLink 5.5,2013-05-01 06:06:00,
2013-05-01 02:15:00,70.2,64.1,29.94,North,-999,0.0,0.0,81,0.00,,,-99.99,WeatherLink 5.5,2013-05-01 06:15:00,
2013-05-01 02:20:00,70.0,63.9,29.93,North,-999,0.0,0.0,81,0.00,,,-99.99,WeatherLink 5.5,2013-05-01 06:20:00,
2013-05-01 02:25:00,70.0,63.9,29.93,North,-999,0.0,0.0,81,0.00,,,-99.99,WeatherLink 5.5,2013-05-01 06:25:00,
2013-05-01 02:30:00,70.0,63.9,29.93,North,-999,0.0,0.0,81,0.00,,,-99.99,WeatherLink 5.5,2013-05-01 06:30:00,
2013-05-01 02:40:00,70.2,64.1,29.92,North,-999,0.0,0.0,81,0.00,,,-99.99,WeatherLink 5.5,2013-05-01 06:40:00,
2013-05-01 02:50:00,70.1,-99.9,29.92,North,-999,0.0,0.0,-999,0.00,,,-99.99,WeatherLink 5.5,2013-05-01 06:50:00,
2013-05-01 03:00:00,69.9,-99.9,29.92,North,-999,0.0,0.0,-999,0.00,,,-99.99,WeatherLink 5.5,2013-05-01 07:00:00,
2013-05-01 03:01:00,70.0,63.9,29.92,North,-999,0.0,0.0,81,0.00,,,-99.99,WeatherLink 5.5,2013-05-01 07:01:00,
2013-05-01 03:10:00,69.9,63.8,29.91,North,-999,0.0,0.0,81,0.00,,,-99.99,WeatherLink 5.5,2013-05-01 07:10:00,
2013-05-01 03:15:00,70.0,63.9,29.91,North,-999,0.0,0.0,81,0.00,,,-99.99,WeatherLink 5.5,2013-05-01 07:15:00,
2013-05-01 03:20:00,70.0,63.9,29.91,North,-999,0.0,0.0,81,0.00,,,-99.99,WeatherLink 5.5,2013-05-01 07:20:00,
2013-05-01 03:26:00,69.9,63.8,29.92,North,-999,0.0,0.0,81,0.00,,,-99.99,WeatherLink 5.5,2013-05-01 07:26:00,
2013-05-01 03:35:00,69.8,-99.9,29.93,North,-999,0.0,0.0,-999,0.00,,,-99.99,WeatherLink 5.5,2013-05-01 07:35:00,
2013-05-01 03:40:00,69.7,-99.9,29.91,North,-999,0.0,0.0,-999,0.00,,,-99.99,WeatherLink 5.5,2013-05-01 07:40:00,
2013-05-01 03:50:00,69.9,63.8,29.91,North,-999,0.0,0.0,81,0.00,,,-99.99,WeatherLink 5.5,2013-05-01 07:50:00,
2013-05-01 04:00:00,70.0,-99.9,29.91,North,-999,0.0,0.0,-999,0.00,,,-99.99,WeatherLink 5.5,2013-05-01 08:00:00,
2013-05-01 04:05:00,70.3,-99.9,29.91,North,-999,0.0,0.0,-999,0.00,,,-99.99,WeatherLink 5.5,2013-05-01 08:05:00,
2013-05-01 04:10:00,70.3,-99.9,29.91,North,-999,0.0,0.0,-999,0.00,,,-99.99,WeatherLink 5.5,2013-05-01 08:10:00,
2013-05-01 04:15:00,70.5,-99.9,29.91,North,-999,0.0,0.0,-999,0.00,,,-99.99,WeatherLink 5.5,2013-05-01 08:15:00,
2013-05-01 04:20:00,70.5,-99.9,29.92,North,-999,0.0,0.0,-999,0.00,,,-99.99,WeatherLink 5.5,2013-05-01 08:20:00,
2013-05-01 04:30:00,70.7,64.6,29.91,North,-999,0.0,0.0,81,0.00,,,-99.99,WeatherLink 5.5,2013-05-01 08:30:00,
2013-05-01 04:35:00,70.8,64.7,29.91,North,-999,0.0,0.0,81,0.00,,,-99.99,WeatherLink 5.5,2013-05-01 08:35:00,
2013-05-01 04:45:00,71.0,-99.9,29.91,North,-999,0.0,0.0,-999,0.00,,,-99.99,WeatherLink 5.5,2013-05-01 08:45:00,
2013-05-01 04:50:00,70.9,-99.9,29.91,North,-999,0.0,0.0,-999,0.00,,,-99.99,WeatherLink 5.5,2013-05-01 08:50:00,
2013-05-01 04:55:00,70.8,-99.9,29.91,North,-999,0.0,0.0,-999,0.00,,,-99.99,WeatherLink 5.5,2013-05-01 08:55:00,
2013-05-01 05:00:00,70.8,-99.9,29.91,North,-999,0.0,0.0,-999,0.00,,,-99.99,WeatherLink 5.5,2013-05-01 09:00:00,
2013-05-01 05:05:00,71.0,-99.9,29.91,North,-999,0.0,0.0,-999,0.00,,,-99.99,WeatherLink 5.5,2013-05-01 09:05:00,
2013-05-01 05:10:00,71.2,-99.9,29.92,North,-999,0.0,0.0,-999,0.00,,,-99.99,WeatherLink 5.5,2013-05-01 09:10:00,
2013-05-01 05:20:00,71.3,-99.9,29.91,North,-999,0.0,0.0,-999,0.00,,,-99.99,WeatherLink 5.5,2013-05-01 09:20:00,
2013-05-01 05:30:00,71.5,-99.9,29.91,North,-999,0.0,0.0,-999,0.00,,,-99.99,WeatherLink 5.5,2013-05-01 09:30:00,
2013-05-01 05:35:00,71.5,-99.9,29.91,North,-999,0.0,0.0,-999,0.00,,,-99.99,WeatherLink 5.5,2013-05-01 09:35:00,
2013-05-01 05:40:00,71.6,-99.9,29.91,North,-999,0.0,1.0,-999,0.00,,,-99.99,WeatherLink 5.5,2013-05-01 09:40:00,
2013-05-01 05:45:00,71.6,-99.9,29.91,North,-999,0.0,1.0,-999,0.00,,,-99.99,WeatherLink 5.5,2013-05-01 09:45:00,
2013-05-01 05:50:00,71.7,-99.9,29.91,ESE,112,0.0,3.0,-999,0.00,,,-99.99,WeatherLink 5.5,2013-05-01 09:50:00,
2013-05-01 05:55:00,71.8,-99.9,29.91,North,-999,0.0,0.0,-999,0.00,,,-99.99,WeatherLink 5.5,2013-05-01 09:55:00,
2013-05-01 05:56:00,71.8,-99.9,29.91,North,-999,0.0,0.0,-999,0.00,,,-99.99,WeatherLink 5.5,2013-05-01 09:56:00,
2013-05-01 06:05:00,71.8,65.7,29.91,ESE,112,0.0,2.0,81,0.00,,,-99.99,WeatherLink 5.5,2013-05-01 10:05:00,
2013-05-01 06:10:00,71.8,-99.9,29.92,North,-999,0.0,0.0,-999,0.00,,,-99.99,WeatherLink 5.5,2013-05-01 10:10:00,
2013-05-01 06:15:00,71.8,-99.9,29.92,North,-999,0.0,0.0,-999,0.00,,,-99.99,WeatherLink 5.5,2013-05-01 10:15:00,
2013-05-01 06:20:00,72.0,-99.9,29.92,ESE,112,0.0,2.0,-999,0.00,,,-99.99,WeatherLink 5.5,2013-05-01 10:20:00,
2013-05-01 06:25:00,72.3,-99.9,29.92,ESE,112,0.0,3.0,-999,0.01,,,-99.99,WeatherLink 5.5,2013-05-01 10:25:00,
2013-05-01 06:30:00,72.3,-99.9,29.92,ESE,112,0.0,3.0,-999,0.01,,,-99.99,WeatherLink 5.5,2013-05-01 10:30:00,
2013-05-01 06:35:00,72.5,-99.9,29.93,North,-999,0.0,1.0,-999,0.01,,,-99.99,WeatherLink 5.5,2013-05-01 10:35:00,
2013-05-01 06:40:00,72.5,-99.9,29.93,North,-999,0.0,0.0,-999,0.01,,,-99.99,WeatherLink 5.5,2013-05-01 10:40:00,
2013-05-01 06:50:00,72.5,66.3,29.93,North,-999,0.0,0.0,81,0.02,,,-99.99,WeatherLink 5.5,2013-05-01 10:50:00,
2013-05-01 07:00:00,72.5,-99.9,29.94,ESE,112,0.0,1.0,-999,0.06,,,-99.99,WeatherLink 5.5,2013-05-01 11:00:00,
2013-05-01 07:05:00,72.5,-99.9,29.94,North,-999,0.0,0.0,-999,0.07,,,-99.99,WeatherLink 5.5,2013-05-01 11:05:00,
2013-05-01 07:10:00,72.5,-99.9,29.94,North,-999,0.0,0.0,-999,0.07,,,-99.99,WeatherLink 5.5,2013-05-01 11:10:00,
2013-05-01 07:15:00,72.6,-99.9,29.94,North,-999,0.0,0.0,-999,0.07,,,-99.99,WeatherLink 5.5,2013-05-01 11:15:00,
2013-05-01 07:25:00,72.6,-99.9,29.94,North,-999,0.0,0.0,-999,0.07,,,-99.99,WeatherLink 5.5,2013-05-01 11:25:00,
2013-05-01 07:30:00,72.6,-99.9,29.94,North,-999,0.0,0.0,-999,0.07,,,-99.99,WeatherLink 5.5,2013-05-01 11:30:00,
2013-05-01 07:40:00,72.6,66.4,29.94,North,-999,0.0,0.0,81,0.06,,,-99.99,WeatherLink 5.5,2013-05-01 11:40:00,
2013-05-01 07:50:00,72.8,-99.9,29.95,North,-999,0.0,0.0,-999,0.06,,,-99.99,WeatherLink 5.5,2013-05-01 11:50:00,
2013-05-01 07:55:00,73.3,-99.9,29.96,North,-999,0.0,0.0,-999,0.03,,,-99.99,WeatherLink 5.5,2013-05-01 11:55:00,
2013-05-01 08:00:00,73.3,-99.9,29.96,North,-999,0.0,0.0,-999,0.03,,,-99.99,WeatherLink 5.5,2013-05-01 12:00:00,
2013-05-01 08:05:00,73.5,-99.9,29.96,North,-999,0.0,0.0,-999,0.01,,,-99.99,WeatherLink 5.5,2013-05-01 12:05:00,
2013-05-01 08:15:00,74.2,-99.9,29.95,North,-999,0.0,1.0,-999,0.00,,,-99.99,WeatherLink 5.5,2013-05-01 12:15:00,
2013-05-01 08:20:00,75.1,-99.9,29.95,North,-999,0.0,0.0,-999,0.00,,,-99.99,WeatherLink 5.5,2013-05-01 12:20:00,
2013-05-01 08:25:00,75.1,-99.9,29.95,North,-999,0.0,0.0,-999,0.00,,,-99.99,WeatherLink 5.5,2013-05-01 12:25:00,
2013-05-01 08:30:00,75.4,-99.9,29.95,North,-999,0.0,0.0,-999,0.00,,,-99.99,WeatherLink 5.5,2013-05-01 12:30:00,
2013-05-01 08:40:00,75.8,-99.9,29.96,North,-999,0.0,0.0,-999,0.00,,,-99.99,WeatherLink 5.5,2013-05-01 12:40:00,
2013-05-01 08:45:00,76.1,-99.9,29.96,ESE,112,0.0,3.0,-999,0.00,,,-99.99,WeatherLink 5.5,2013-05-01 12:45:00,
2013-05-01 08:50:00,76.1,-99.9,29.96,ESE,112,0.0,3.0,-999,0.00,,,-99.99,WeatherLink 5.5,2013-05-01 12:50:00,
2013-05-01 08:55:00,76.0,-99.9,29.96,North,-999,0.0,1.0,-999,0.00,,,-99.99,WeatherLink 5.5,2013-05-01 12:55:00,
2013-05-01 09:05:00,75.8,-99.9,29.95,ESE,112,1.0,4.0,-999,0.01,,,-99.99,WeatherLink 5.5,2013-05-01 13:05:00,
2013-05-01 09:10:00,75.6,-99.9,29.96,ESE,112,0.0,3.0,-999,0.01,,,-99.99,WeatherLink 5.5,2013-05-01 13:10:00,
2013-05-01 09:20:00,75.1,-99.9,29.96,NE,45,0.0,4.0,-999,0.02,,,-99.99,WeatherLink 5.5,2013-05-01 13:20:00,
2013-05-01 09:30:00,75.9,-99.9,29.95,NE,45,0.0,1.0,-999,0.02,,,-99.99,WeatherLink 5.5,2013-05-01 13:30:00,
2013-05-01 09:40:00,77.4,-99.9,29.95,North,-999,0.0,0.0,-999,0.02,,,-99.99,WeatherLink 5.5,2013-05-01 13:40:00,
2013-05-01 09:50:00,79.1,-99.9,29.95,ESE,112,0.0,5.0,-999,0.02,,,-99.99,WeatherLink 5.5,2013-05-01 13:50:00,
2013-05-01 09:55:00,80.1,-99.9,29.96,ESE,112,2.0,8.0,-999,0.01,,,-99.99,WeatherLink 5.5,2013-05-01 13:55:00,
2013-05-01 10:00:00,80.1,-99.9,29.96,ESE,112,2.0,8.0,-999,0.01,,,-99.99,WeatherLink 5.5,2013-05-01 14:00:00,
2013-05-01 10:05:00,80.6,74.2,29.97,East,90,2.0,8.0,81,0.01,,,-99.99,WeatherLink 5.5,2013-05-01 14:05:00,
2013-05-01 10:15:00,80.3,-99.9,29.97,East,90,1.0,8.0,-999,0.01,,,-99.99,WeatherLink 5.5,2013-05-01 14:15:00,
2013-05-01 10:20:00,80.0,-99.9,29.98,ESE,112,1.0,5.0,-999,0.00,,,-99.99,WeatherLink 5.5,2013-05-01 14:20:00,
2013-05-01 10:30:00,79.8,73.4,29.98,ESE,112,1.0,6.0,81,0.00,,,-99.99,WeatherLink 5.5,2013-05-01 14:30:00,
2013-05-01 10:40:00,80.3,73.9,29.99,ESE,112,1.0,5.0,81,0.00,,,-99.99,WeatherLink 5.5,2013-05-01 14:40:00,
2013-05-01 10:50:00,80.1,73.7,29.99,ESE,112,1.0,6.0,81,0.00,,,-99.99,WeatherLink 5.5,2013-05-01 14:50:00,
2013-05-01 10:55:00,80.1,73.7,29.98,East,90,2.0,6.0,81,0.00,,,-99.99,WeatherLink 5.5,2013-05-01 14:55:00,
2013-05-01 11:00:00,80.1,73.7,29.98,East,90,2.0,6.0,81,0.00,,,-99.99,WeatherLink 5.5,2013-05-01 15:00:00,
2013-05-01 11:10:00,81.0,74.6,29.99,East,90,2.0,8.0,81,0.00,,,-99.99,WeatherLink 5.5,2013-05-01 15:10:00,
2013-05-01 11:20:00,82.3,79.4,29.98,East,90,2.0,7.0,91,0.00,,,-99.99,WeatherLink 5.5,2013-05-01 15:20:00,
2013-05-01 11:30:00,82.2,82.2,29.98,East,90,2.0,8.0,100,0.00,,,-99.99,WeatherLink 5.5,2013-05-01 15:30:00,
2013-05-01 11:35:00,81.9,81.9,29.99,ESE,112,2.0,7.0,100,0.00,,,-99.99,WeatherLink 5.5,2013-05-01 15:35:00,
2013-05-01 11:40:00,81.9,81.9,29.99,ESE,112,2.0,7.0,100,0.00,,,-99.99,WeatherLink 5.5,2013-05-01 15:40:00,
2013-05-01 11:45:00,82.5,82.5,29.98,ESE,112,2.0,8.0,100,0.00,,,-99.99,WeatherLink 5.5,2013-05-01 15:45:00,
2013-05-01 11:55:00,82.9,82.9,29.98,ESE,112,1.0,6.0,100,0.00,,,-99.99,WeatherLink 5.5,2013-05-01 15:55:00,
2013-05-01 12:00:00,83.4,83.4,29.98,East,90,1.0,7.0,100,0.00,,,-99.99,WeatherLink 5.5,2013-05-01 16:00:00,
2013-05-01 12:10:00,83.9,83.9,29.98,East,90,2.0,7.0,100,0.00,,,-99.99,WeatherLink 5.5,2013-05-01 16:10:00,
2013-05-01 12:16:00,84.0,84.0,29.98,East,90,1.0,6.0,100,0.00,,,-99.99,WeatherLink 5.5,2013-05-01 16:16:00,
2013-05-01 12:20:00,84.6,84.6,29.97,East,90,1.0,8.0,100,0.00,,,-99.99,WeatherLink 5.5,2013-05-01 16:20:00,
2013-05-01 12:25:00,84.6,84.6,29.97,East,90,1.0,8.0,100,0.00,,,-99.99,WeatherLink 5.5,2013-05-01 16:25:00,
2013-05-01 12:30:00,84.7,84.7,29.96,East,90,1.0,5.0,100,0.00,,,-99.99,WeatherLink 5.5,2013-05-01 16:30:00,
2013-05-01 12:35:00,85.1,85.1,29.96,SE,135,2.0,10.0,100,0.00,,,-99.99,WeatherLink 5.5,2013-05-01 16:35:00,
2013-05-01 12:40:00,85.1,85.1,29.96,SE,135,2.0,10.0,100,0.00,,,-99.99,WeatherLink 5.5,2013-05-01 16:40:00,
2013-05-01 12:45:00,85.3,85.3,29.96,East,90,2.0,7.0,100,0.00,,,-99.99,WeatherLink 5.5,2013-05-01 16:45:00,
2013-05-01 12:55:00,85.1,85.1,29.96,ESE,112,2.0,8.0,100,0.00,,,-99.99,WeatherLink 5.5,2013-05-01 16:55:00,
2013-05-01 13:05:00,84.9,84.9,29.96,East,90,3.0,10.0,100,0.00,,,-99.99,WeatherLink 5.5,2013-05-01 17:05:00,
2013-05-01 13:15:00,84.6,84.6,29.96,East,90,1.0,5.0,100,0.00,,,-99.99,WeatherLink 5.5,2013-05-01 17:15:00,
2013-05-01 13:25:00,84.5,84.5,29.96,East,90,1.0,7.0,100,0.00,,,-99.99,WeatherLink 5.5,2013-05-01 17:25:00,
2013-05-01 13:30:00,84.6,84.6,29.95,East,90,3.0,8.0,100,0.00,,,-99.99,WeatherLink 5.5,2013-05-01 17:30:00,
2013-05-01 13:35:00,84.6,84.6,29.95,East,90,3.0,8.0,100,0.00,,,-99.99,WeatherLink 5.5,2013-05-01 17:35:00,
2013-05-01 13:40:00,84.8,84.8,29.95,East,90,2.0,7.0,100,0.00,,,-99.99,WeatherLink 5.5,2013-05-01 17:40:00,
2013-05-01 13:45:00,84.4,-99.9,29.94,East,90,3.0,9.0,-999,0.00,,,-99.99,WeatherLink 5.5,2013-05-01 17:45:00,
2013-05-01 13:50:00,84.4,-99.9,29.94,East,90,3.0,9.0,-999,0.00,,,-99.99,WeatherLink 5.5,2013-05-01 17:50:00,
2013-05-01 14:00:00,84.4,-99.9,29.93,ENE,67,3.0,8.0,-999,0.00,,,-99.99,WeatherLink 5.5,2013-05-01 18:00:00,
2013-05-01 14:05:00,84.7,84.7,29.93,East,90,4.0,10.0,100,0.00,,,-99.99,WeatherLink 5.5,2013-05-01 18:05:00,
2013-05-01 14:10:00,84.7,84.7,29.93,East,90,4.0,10.0,100,0.00,,,-99.99,WeatherLink 5.5,2013-05-01 18:10:00,
2013-05-01 14:15:00,84.5,84.5,29.93,ENE,67,3.0,9.0,100,0.00,,,-99.99,WeatherLink 5.5,2013-05-01 18:15:00,
2013-05-01 14:25:00,84.1,84.1,29.94,ESE,112,4.0,9.0,100,0.00,,,-99.99,WeatherLink 5.5,2013-05-01 18:25:00,
2013-05-01 14:31:00,84.1,84.1,29.94,East,90,4.0,12.0,100,0.00,,,-99.99,WeatherLink 5.5,2013-05-01 18:31:00,
2013-05-01 14:40:00,83.7,83.7,29.94,East,90,3.0,9.0,100,0.00,,,-99.99,WeatherLink 5.5,2013-05-01 18:40:00,
2013-05-01 14:50:00,83.8,83.8,29.94,ESE,112,4.0,8.0,100,0.00,,,-99.99,WeatherLink 5.5,2013-05-01 18:50:00,
2013-05-01 14:55:00,83.5,83.5,29.93,East,90,4.0,11.0,100,0.00,,,-99.99,WeatherLink 5.5,2013-05-01 18:55:00,
2013-05-01 15:00:00,82.9,82.9,29.93,East,90,3.0,10.0,100,0.00,,,-99.99,WeatherLink 5.5,2013-05-01 19:00:00,
2013-05-01 15:05:00,82.9,82.9,29.93,East,90,3.0,10.0,100,0.00,,,-99.99,WeatherLink 5.5,2013-05-01 19:05:00,
2013-05-01 15:10:00,82.9,82.9,29.93,ESE,112,3.0,9.0,100,0.00,,,-99.99,WeatherLink 5.5,2013-05-01 19:10:00,
2013-05-01 15:20:00,82.5,82.5,29.94,ESE,112,2.0,9.0,100,0.00,,,-99.99,WeatherLink 5.5,2013-05-01 19:20:00,
2013-05-01 15:30:00,82.0,82.0,29.94,ESE,112,1.0,7.0,100,0.00,,,-99.99,WeatherLink 5.5,2013-05-01 19:30:00,
2013-05-01 15:40:00,81.4,81.4,29.93,East,90,3.0,8.0,100,0.00,,,-99.99,WeatherLink 5.5,2013-05-01 19:40:00,
2013-05-01 15:46:00,81.1,-99.9,29.93,East,90,2.0,7.0,-999,0.00,,,-99.99,WeatherLink 5.5,2013-05-01 19:46:00,
2013-05-01 15:50:00,80.7,-99.9,29.92,East,90,2.0,8.0,-999,0.00,,,-99.99,WeatherLink 5.5,2013-05-01 19:50:00,
2013-05-01 15:55:00,80.7,-99.9,29.92,East,90,2.0,8.0,-999,0.00,,,-99.99,WeatherLink 5.5,2013-05-01 19:55:00,
2013-05-01 16:00:00,80.5,-99.9,29.92,ESE,112,2.0,8.0,-999,0.00,,,-99.99,WeatherLink 5.5,2013-05-01 20:00:00,
2013-05-01 16:10:00,80.1,80.1,29.93,ESE,112,1.0,7.0,100,0.00,,,-99.99,WeatherLink 5.5,2013-05-01 20:10:00,
2013-05-01 16:20:00,79.9,79.9,29.93,North,-999,0.0,1.0,100,0.00,,,-99.99,WeatherLink 5.5,2013-05-01 20:20:00,
2013-05-01 16:25:00,79.7,79.7,29.94,East,90,0.0,3.0,100,0.00,,,-99.99,WeatherLink 5.5,2013-05-01 20:25:00,
2013-05-01 16:30:00,79.7,79.7,29.94,East,90,0.0,3.0,100,0.00,,,-99.99,WeatherLink 5.5,2013-05-01 20:30:00,
2013-05-01 16:35:00,79.3,79.3,29.94,North,-999,0.0,0.0,100,0.01,,,-99.99,WeatherLink 5.5,2013-05-01 20:35:00,
2013-05-01 16:45:00,78.0,78.0,29.94,North,-999,0.0,1.0,100,0.02,,,-99.99,WeatherLink 5.5,2013-05-01 20:45:00,
2013-05-01 16:50:00,77.6,77.6,29.94,North,-999,0.0,1.0,100,0.03,,,-99.99,WeatherLink 5.5,2013-05-01 20:50:00,
2013-05-01 16:55:00,77.3,74.5,29.94,North,-999,0.0,0.0,91,0.05,,,-99.99,WeatherLink 5.5,2013-05-01 20:55:00,
2013-05-01 17:00:00,77.3,74.5,29.94,North,-999,0.0,0.0,91,0.05,,,-99.99,WeatherLink 5.5,2013-05-01 21:00:00,
2013-05-01 17:05:00,76.9,76.9,29.95,NW,315,5.0,14.0,100,0.07,,,-99.99,WeatherLink 5.5,2013-05-01 21:05:00,
2013-05-01 17:10:00,74.7,74.7,29.95,West,270,5.0,12.0,100,0.09,,,-99.99,WeatherLink 5.5,2013-05-01 21:10:00,
2013-05-01 17:20:00,72.4,68.6,29.95,WNW,292,2.0,6.0,88,0.11,,,-99.99,WeatherLink 5.5,2013-05-01 21:20:00,
2013-05-01 17:30:00,71.7,60.2,29.94,WNW,292,2.0,5.0,67,0.13,,,-99.99,WeatherLink 5.5,2013-05-01 21:30:00,
2013-05-01 17:35:00,71.7,64.8,29.91,North,0,1.0,5.0,79,0.16,,,-99.99,WeatherLink 5.5,2013-05-01 21:35:00,
2013-05-01 17:40:00,71.7,64.8,29.91,North,0,1.0,5.0,79,0.16,,,-99.99,WeatherLink 5.5,2013-05-01 21:40:00,
2013-05-01 17:45:00,71.7,65.2,29.92,North,-999,0.0,0.0,80,0.15,,,-99.99,WeatherLink 5.5,2013-05-01 21:45:00,
2013-05-01 17:56:00,71.9,65.8,29.93,North,-999,0.0,0.0,81,0.14,,,-99.99,WeatherLink 5.5,2013-05-01 21:56:00,
2013-05-01 18:05:00,71.8,65.7,29.93,North,0,1.0,4.0,81,0.12,,,-99.99,WeatherLink 5.5,2013-05-01 22:05:00,
2013-05-01 18:15:00,71.8,65.7,29.93,North,0,0.0,3.0,81,0.08,,,-99.99,WeatherLink 5.5,2013-05-01 22:15:00,
2013-05-01 18:26:00,71.9,65.8,29.92,North,0,0.0,1.0,81,0.06,,,-99.99,WeatherLink 5.5,2013-05-01 22:26:00,
2013-05-01 18:30:00,71.8,65.7,29.91,North,0,2.0,7.0,81,0.05,,,-99.99,WeatherLink 5.5,2013-05-01 22:30:00,
2013-05-01 18:35:00,71.8,65.7,29.91,North,0,2.0,7.0,81,0.05,,,-99.99,WeatherLink 5.5,2013-05-01 22:35:00,
2013-05-01 18:40:00,71.7,65.6,29.93,North,0,1.0,6.0,81,0.03,,,-99.99,WeatherLink 5.5,2013-05-01 22:40:00,
2013-05-01 18:45:00,71.7,65.6,29.93,North,-999,0.0,0.0,81,0.01,,,-99.99,WeatherLink 5.5,2013-05-01 22:45:00,
2013-05-01 18:50:00,71.7,65.6,29.93,North,-999,0.0,0.0,81,0.01,,,-99.99,WeatherLink 5.5,2013-05-01 22:50:00,
2013-05-01 18:55:00,71.9,65.8,29.94,North,0,0.0,1.0,81,0.01,,,-99.99,WeatherLink 5.5,2013-05-01 22:55:00,
2013-05-01 19:00:00,71.9,65.8,29.94,North,-999,0.0,0.0,81,0.01,,,-99.99,WeatherLink 5.5,2013-05-01 23:00:00,
2013-05-01 19:05:00,71.9,65.8,29.94,North,-999,0.0,0.0,81,0.01,,,-99.99,WeatherLink 5.5,2013-05-01 23:05:00,
2013-05-01 19:11:00,71.8,65.7,29.95,North,-999,0.0,1.0,81,0.01,,,-99.99,WeatherLink 5.5,2013-05-01 23:11:00,
2013-05-01 19:15:00,71.7,65.6,29.95,North,-999,0.0,0.0,81,0.01,,,-99.99,WeatherLink 5.5,2013-05-01 23:15:00,
2013-05-01 19:20:00,71.7,65.6,29.95,North,-999,0.0,0.0,81,0.01,,,-99.99,WeatherLink 5.5,2013-05-01 23:20:00,
2013-05-01 19:25:00,71.4,-99.9,29.95,North,0,0.0,3.0,-999,0.01,,,-99.99,WeatherLink 5.5,2013-05-01 23:25:00,
2013-05-01 19:35:00,71.2,65.1,29.95,North,0,0.0,4.0,81,0.00,,,-99.99,WeatherLink 5.5,2013-05-01 23:35:00,
2013-05-01 19:45:00,71.0,64.9,29.94,North,0,1.0,4.0,81,0.00,,,-99.99,WeatherLink 5.5,2013-05-01 23:45:00,
2013-05-01 19:51:00,70.9,64.8,29.95,North,-999,0.0,0.0,81,0.00,,,-99.99,WeatherLink 5.5,2013-05-01 23:51:00,
2013-05-01 20:00:00,71.0,-99.9,29.95,North,0,0.0,1.0,-999,0.00,,,-99.99,WeatherLink 5.5,2013-05-02 00:00:00,
2013-05-01 20:10:00,71.0,-99.9,29.95,North,-999,0.0,1.0,-999,0.00,,,-99.99,WeatherLink 5.5,2013-05-02 00:10:00,
2013-05-01 20:15:00,71.0,64.9,29.95,North,-999,0.0,0.0,81,0.00,,,-99.99,WeatherLink 5.5,2013-05-02 00:15:00,
2013-05-01 20:25:00,71.0,64.9,29.95,North,-999,0.0,0.0,81,0.00,,,-99.99,WeatherLink 5.5,2013-05-02 00:25:00,
2013-05-01 20:30:00,71.1,-99.9,29.95,North,-999,0.0,0.0,-999,0.00,,,-99.99,WeatherLink 5.5,2013-05-02 00:30:00,
2013-05-01 20:40:00,71.1,-99.9,29.95,North,-999,0.0,0.0,-999,0.00,,,-99.99,WeatherLink 5.5,2013-05-02 00:40:00,
2013-05-01 20:46:00,71.1,-99.9,29.95,North,-999,0.0,1.0,-999,0.00,,,-99.99,WeatherLink 5.5,2013-05-02 00:46:00,
2013-05-01 20:55:00,71.1,65.0,29.95,North,0,0.0,3.0,81,0.00,,,-99.99,WeatherLink 5.5,2013-05-02 00:55:00,
2013-05-01 21:00:00,71.1,65.0,29.95,North,-999,0.0,1.0,81,0.00,,,-99.99,WeatherLink 5.5,2013-05-02 01:00:00,
2013-05-01 21:10:00,71.0,-99.9,29.95,North,0,0.0,2.0,-999,0.00,,,-99.99,WeatherLink 5.5,2013-05-02 01:10:00,
2013-05-01 21:21:00,71.0,-99.9,29.94,North,-999,0.0,1.0,-999,0.00,,,-99.99,WeatherLink 5.5,2013-05-02 01:21:00,
2013-05-01 21:30:00,71.0,64.9,29.94,North,-999,0.0,2.0,81,0.00,,,-99.99,WeatherLink 5.5,2013-05-02 01:30:00,
2013-05-01 21:40:00,71.0,64.9,29.94,North,0,0.0,1.0,81,0.00,,,-99.99,WeatherLink 5.5,2013-05-02 01:40:00,
2013-05-01 21:46:00,70.9,-99.9,29.95,North,-999,0.0,0.0,-999,0.00,,,-99.99,WeatherLink 5.5,2013-05-02 01:46:00,
2013-05-01 21:55:00,70.9,64.8,29.93,North,0,1.0,4.0,81,0.00,,,-99.99,WeatherLink 5.5,2013-05-02 01:55:00,
2013-05-01 22:00:00,70.9,-99.9,29.94,North,0,1.0,4.0,-999,0.00,,,-99.99,WeatherLink 5.5,2013-05-02 02:00:00,
2013-05-01 22:10:00,70.8,-99.9,29.94,North,0,0.0,1.0,-999,0.00,,,-99.99,WeatherLink 5.5,2013-05-02 02:10:00,
2013-05-01 22:15:00,71.0,64.9,29.94,North,0,1.0,5.0,81,0.00,,,-99.99,WeatherLink 5.5,2013-05-02 02:15:00,
2013-05-01 22:20:00,71.0,64.9,29.94,North,0,1.0,5.0,81,0.00,,,-99.99,WeatherLink 5.5,2013-05-02 02:20:00,
2013-05-01 22:25:00,71.0,64.9,29.94,North,-999,0.0,0.0,81,0.00,,,-99.99,WeatherLink 5.5,2013-05-02 02:25:00,
2013-05-01 22:31:00,70.9,64.8,29.95,North,-999,0.0,0.0,81,0.00,,,-99.99,WeatherLink 5.5,2013-05-02 02:31:00,
2013-05-01 22:35:00,71.0,-99.9,29.95,North,-999,0.0,1.0,-999,0.00,,,-99.99,WeatherLink 5.5,2013-05-02 02:35:00,
2013-05-01 22:40:00,71.0,-99.9,29.95,North,-999,0.0,1.0,-999,0.00,,,-99.99,WeatherLink 5.5,2013-05-02 02:40:00,
2013-05-01 22:45:00,71.1,-99.9,29.95,North,0,0.0,1.0,-999,0.00,,,-99.99,WeatherLink 5.5,2013-05-02 02:45:00,
2013-05-01 22:50:00,71.0,-99.9,29.95,North,-999,0.0,1.0,-999,0.00,,,-99.99,WeatherLink 5.5,2013-05-02 02:50:00,
2013-05-01 23:00:00,71.1,-99.9,29.95,North,0,0.0,3.0,-999,0.00,,,-99.99,WeatherLink 5.5,2013-05-02 03:00:00,
2013-05-01 23:05:00,71.1,-99.9,29.95,North,0,0.0,3.0,-999,0.00,,,-99.99,WeatherLink 5.5,2013-05-02 03:05:00,
2013-05-01 23:15:00,71.1,-99.9,29.94,North,0,1.0,4.0,-999,0.00,,,-99.99,WeatherLink 5.5,2013-05-02 03:15:00,
2013-05-01 23:25:00,71.1,-99.9,29.93,NNE,22,0.0,3.0,-999,0.00,,,-99.99,WeatherLink 5.5,2013-05-02 03:25:00,
2013-05-01 23:30:00,71.1,65.0,29.93,NNE,22,0.0,1.0,81,0.00,,,-99.99,WeatherLink 5.5,2013-05-02 03:30:00,
2013-05-01 23:35:00,71.1,65.0,29.93,NNE,22,0.0,1.0,81,0.00,,,-99.99,WeatherLink 5.5,2013-05-02 03:35:00,
2013-05-01 23:40:00,71.2,65.1,29.93,North,-999,0.0,0.0,81,0.00,,,-99.99,WeatherLink 5.5,2013-05-02 03:40:00,
2013-05-01 23:45:00,71.3,-99.9,29.93,North,-999,0.0,0.0,-999,0.00,,,-99.99,WeatherLink 5.5,2013-05-02 03:45:00,
2013-05-01 23:56:00,71.4,65.3,29.93,North,-999,0.0,0.0,81,0.00,,,-99.99,WeatherLink 5.5,2013-05-02 03:56:00,